軌道要素
Epoch 2022 Jan. 21.0 TT = JDT 2459600.5
T 2021 Dec. 14.55584 TT Rudenko
q 3.9378774 (2000.0) P Q
n 0.05303269 Peri. 326.73247 -0.06196473 -0.90087813
a 7.0162808 Node 123.09205 +0.99049125 -0.10847984
e 0.4387515 Incl. 30.85096 +0.12283100 +0.42029837
P 18.6
From 1603 observations 2001 Nov. 22-2022 Feb. 12, mean residual 0".6.
Nongravitational parameters A1 = -0.94, A2 = -0.6462.
|